Location: Byszew
(52.1813°N, 19.2693°E)
Time: 00:57:30
(UTC+00:00)

Cosmos 1992 Rocket - Pass Details

Date: 03 March 2021
Orbit: 759 x 765 km, 74.0° (Epoch: 11 April)

Event Time Altitude Azimuth Distance (km) Brightness Sun altitude
Rises 17:49:03 0° 199° (SSW) 3,219 7.4 -13.5°
Reaches altitude 10° 17:51:25 10° 198° (SSW) 2,297 6.6 -13.8°
Maximum altitude 17:56:38 80° 112° (ESE) 783 3.9 -14.6°
Drops below altitude 10° 18:01:52 10° 27° (NNE) 2,310 6.3 -15.4°
Sets 18:04:15 0° 27° (NNE) 3,239 7.1 -15.8°
